TimeAKDT,TemperatureF,Dew PointF,Humidity,Sea Level PressureIn,VisibilityMPH,Wind Direction,Wind SpeedMPH,Gust SpeedMPH,PrecipitationIn,Events,Conditions,WindDirDegrees,DateUTC
12:53 AM,15.1,10.0,80,30.50,10.0,Calm,Calm,-,N/A,,Clear,0,2012-10-26 08:53:00
1:53 AM,14.0,9.0,80,30.48,10.0,NE,3.5,-,N/A,,Clear,50,2012-10-26 09:53:00
2:53 AM,12.9,8.1,81,30.49,10.0,East,4.6,-,N/A,,Clear,90,2012-10-26 10:53:00
3:53 AM,12.0,9.0,88,30.48,10.0,Calm,Calm,-,N/A,,Clear,0,2012-10-26 11:53:00
4:53 AM,12.0,9.0,88,30.47,10.0,Calm,Calm,-,N/A,,Clear,0,2012-10-26 12:53:00
5:53 AM,10.9,8.1,88,30.46,7.0,NE,3.5,-,N/A,,Clear,50,2012-10-26 13:53:00
6:53 AM,12.9,9.0,84,30.44,10.0,ENE,4.6,-,N/A,,Clear,60,2012-10-26 14:53:00
7:53 AM,12.9,9.0,84,30.44,8.0,NE,3.5,-,N/A,,Clear,50,2012-10-26 15:53:00
8:53 AM,10.9,7.0,84,30.43,10.0,Calm,Calm,-,N/A,,Clear,0,2012-10-26 16:53:00
9:53 AM,10.9,8.1,88,30.42,10.0,NNE,4.6,-,N/A,,Clear,20,2012-10-26 17:53:00
10:53 AM,18.0,14.0,84,30.42,10.0,North,3.5,-,N/A,,Clear,10,2012-10-26 18:53:00
11:53 AM,25.0,19.9,81,30.41,10.0,NE,5.8,-,N/A,,Clear,40,2012-10-26 19:53:00
12:53 PM,28.0,18.0,66,30.40,10.0,NE,8.1,-,N/A,,Clear,40,2012-10-26 20:53:00
1:53 PM,30.0,18.0,61,30.39,10.0,NNE,6.9,-,N/A,,Clear,30,2012-10-26 21:53:00
2:53 PM,30.9,17.1,57,30.36,10.0,NE,9.2,-,N/A,,Clear,40,2012-10-26 22:53:00
3:53 PM,32.0,16.0,52,30.35,10.0,NE,5.8,-,N/A,,Clear,40,2012-10-26 23:53:00
4:53 PM,32.0,17.1,54,30.32,10.0,NE,4.6,-,N/A,,Clear,40,2012-10-27 00:53:00
5:53 PM,30.0,15.1,54,30.31,10.0,NNE,6.9,-,N/A,,Clear,20,2012-10-27 01:53:00
6:53 PM,26.1,18.0,71,30.29,10.0,North,3.5,-,N/A,,Clear,350,2012-10-27 02:53:00
7:53 PM,26.1,17.1,69,30.27,10.0,NNE,4.6,-,N/A,,Clear,30,2012-10-27 03:53:00
8:53 PM,21.9,16.0,78,30.26,10.0,NE,4.6,-,N/A,,Clear,40,2012-10-27 04:53:00
9:53 PM,21.0,16.0,81,30.25,10.0,North,5.8,-,N/A,,Clear,10,2012-10-27 05:53:00
10:53 PM,19.0,14.0,81,30.23,7.0,NNE,4.6,-,N/A,,Clear,20,2012-10-27 06:53:00
11:53 PM,19.0,12.9,77,30.22,10.0,Calm,Calm,-,N/A,,Clear,0,2012-10-27 07:53:00